User: anonymous
Location: Muenchen
(48.1800°N, 11.5800°E)
Time: 23:10:58
(UTC+02:00)
Language:

Cosmos 2233 Rocket - Orbit

View from above orbital plane
View from above orbital plane
View from above satellite
View from above satellite

Ground track
Ground track

The orbit data is extracted from the following two-line orbital elements,

1 22488U 93008B   14291.51339198 -.00000016  00000-0 -32025-4 0  9760
2 22488 082.9419 082.2317 0026275 072.9495 350.5153 13.77634930 90330
Epoch (UTC): 18 October 2014 12:19:17
Eccentricity: 0.0026275
inclination: 82.9419°
perigee height: 953 km
apogee height: 991 km
right ascension of ascending node: 82.2317°
argument of perigee: 72.9495°
revolutions per day: 13.77634930
mean anomaly at epoch: 350.5153°
orbit number at epoch: 9033

The dashed part of the orbit path shows where the satellite is in the earth's shadow,  

DLR